| time (UTC) | temp F | wind direction | speed MPH | gust MPH | rain 1hr in | rain 24hr in | rain mn in | humidity % | barometer mb |
| 20260510115823 | 48 | 149 | 2.0 | 4.0 | 0.00 | 0.04 | 0.01 | 90 | 1031.1 |
| 20260510115326 | 48 | 153 | 1.0 | 3.0 | 0.00 | 0.04 | 0.01 | 90 | 1031.1 |
| 20260510114852 | 48 | 171 | 0.0 | 3.0 | 0.00 | 0.04 | 0.01 | 91 | 1031.0 |
| 20260510114314 | 48 | 172 | 1.0 | 3.0 | 0.00 | 0.04 | 0.01 | 91 | 1031.1 |
| 20260510113811 | 48 | 165 | 0.0 | 2.0 | 0.00 | 0.04 | 0.01 | 91 | 1031.1 |
| 20260510113336 | 48 | 170 | 0.0 | 0.0 | 0.00 | 0.04 | 0.01 | 90 | 1031.0 |
| 20260510112824 | 48 | 211 | 0.0 | 0.0 | 0.00 | 0.04 | 0.01 | 90 | 1030.9 |
| 20260510112320 | 47 | 211 | 0.0 | 0.0 | 0.00 | 0.04 | 0.01 | 91 | 1030.8 |
| 20260510111824 | 47 | 212 | 0.0 | 0.0 | 0.00 | 0.04 | 0.01 | 91 | 1030.8 |
| 20260510111329 | 47 | 213 | 0.0 | 0.0 | 0.00 | 0.04 | 0.01 | 91 | 1030.8 |
| 20260510110833 | 46 | 213 | 0.0 | 0.0 | 0.00 | 0.04 | 0.01 | 90 | 1030.7 |
| 20260510110337 | 46 | 213 | 0.0 | 0.0 | 0.00 | 0.04 | 0.01 | 88 | 1030.7 |
| 20260510105835 | 46 | 213 | 0.0 | 0.0 | 0.00 | 0.04 | 0.01 | 88 | 1030.7 |
| 20260510105313 | 46 | 213 | 0.0 | 0.0 | 0.00 | 0.04 | 0.01 | 88 | 1030.8 |
| 20260510104813 | 47 | 213 | 0.0 | 0.0 | 0.00 | 0.04 | 0.01 | 88 | 1030.7 |
| 20260510104317 | 47 | 213 | 0.0 | 0.0 | 0.00 | 0.04 | 0.01 | 88 | 1030.8 |
| 20260510103821 | 47 | 213 | 0.0 | 0.0 | 0.00 | 0.04 | 0.01 | 87 | 1030.7 |
| 20260510103325 | 47 | 213 | 0.0 | 0.0 | 0.00 | 0.04 | 0.01 | 87 | 1030.7 |
| 20260510102828 | 47 | 211 | 0.0 | 0.0 | 0.00 | 0.04 | 0.01 | 87 | 1030.8 |
| 20260510102331 | 47 | 211 | 0.0 | 0.0 | 0.00 | 0.04 | 0.01 | 87 | 1030.8 |
| 20260510101828 | 47 | 211 | 0.0 | 0.0 | 0.00 | 0.04 | 0.01 | 87 | 1030.8 |
| 20260510101330 | 47 | 211 | 0.0 | 0.0 | 0.00 | 0.04 | 0.01 | 86 | 1030.9 |
| 20260510100813 | 48 | 211 | 0.0 | 0.0 | 0.00 | 0.04 | 0.01 | 86 | 1030.8 |
| 20260510100317 | 48 | 211 | 0.0 | 0.0 | 0.00 | 0.04 | 0.01 | 85 | 1030.8 |
| 20260510095819 | 48 | 211 | 0.0 | 0.0 | 0.00 | 0.04 | 0.01 | 85 | 1030.6 |
| 20260510095322 | 48 | 211 | 0.0 | 0.0 | 0.00 | 0.04 | 0.01 | 84 | 1030.7 |
| 20260510094841 | 49 | 211 | 0.0 | 0.0 | 0.00 | 0.04 | 0.01 | 84 | 1030.7 |
| 20260510094323 | 49 | 211 | 0.0 | 0.0 | 0.00 | 0.04 | 0.01 | 83 | 1030.6 |
| 20260510093823 | 50 | 209 | 0.0 | 0.0 | 0.00 | 0.04 | 0.01 | 85 | 1030.6 |
| 20260510093326 | 50 | 202 | 0.0 | 0.0 | 0.00 | 0.04 | 0.01 | 86 | 1030.5 |
| 20260510092829 | 50 | 202 | 0.0 | 0.0 | 0.00 | 0.04 | 0.01 | 84 | 1030.6 |
| 20260510092335 | 50 | 202 | 0.0 | 0.0 | 0.00 | 0.04 | 0.01 | 83 | 1030.4 |
| 20260510091833 | 51 | 202 | 0.0 | 0.0 | 0.00 | 0.04 | 0.01 | 83 | 1030.4 |
| 20260510091314 | 51 | 202 | 0.0 | 0.0 | 0.00 | 0.04 | 0.01 | 83 | 1030.3 |
| 20260510090840 | 51 | 202 | 0.0 | 0.0 | 0.00 | 0.04 | 0.01 | 83 | 1030.4 |
| 20260510090344 | 51 | 202 | 0.0 | 0.0 | 0.00 | 0.04 | 0.01 | 83 | 1030.3 |
| 20260510085824 | 52 | 202 | 0.0 | 0.0 | 0.00 | 0.04 | 0.01 | 82 | 1030.4 |
| 20260510085329 | 52 | 202 | 0.0 | 0.0 | 0.00 | 0.04 | 0.01 | 81 | 1030.2 |
| 20260510084826 | 52 | 202 | 0.0 | 0.0 | 0.00 | 0.04 | 0.01 | 80 | 1030.2 |
| 20260510084337 | 53 | 202 | 0.0 | 0.0 | 0.00 | 0.04 | 0.01 | 79 | 1030.1 |
| 20260510083814 | 54 | 202 | 0.0 | 0.0 | 0.00 | 0.04 | 0.01 | 79 | 1029.9 |
| 20260510083319 | 54 | 202 | 0.0 | 0.0 | 0.00 | 0.04 | 0.01 | 79 | 1029.8 |
| 20260510082822 | 55 | 202 | 0.0 | 0.0 | 0.00 | 0.04 | 0.01 | 79 | 1029.7 |
| 20260510082316 | 55 | 202 | 0.0 | 0.0 | 0.00 | 0.04 | 0.01 | 78 | 1029.7 |
| 20260510081820 | 56 | 202 | 0.0 | 0.0 | 0.00 | 0.04 | 0.01 | 77 | 1029.7 |
| 20260510081324 | 56 | 202 | 0.0 | 0.0 | 0.00 | 0.04 | 0.01 | 75 | 1029.6 |
| 20260510080829 | 57 | 202 | 0.0 | 0.0 | 0.00 | 0.04 | 0.01 | 73 | 1029.5 |
| 20260510080334 | 58 | 202 | 0.0 | 0.0 | 0.00 | 0.04 | 0.01 | 72 | 1029.5 |
| 20260510075818 | 59 | 202 | 0.0 | 0.0 | 0.00 | 0.04 | 0.01 | 72 | 1029.5 |
| 20260510075316 | 59 | 202 | 0.0 | 1.0 | 0.00 | 0.04 | 0.01 | 72 | 1029.4 |
| 20260510074821 | 60 | 202 | 0.0 | 0.0 | 0.00 | 0.04 | 0.01 | 70 | 1029.3 |
| 20260510074323 | 61 | 202 | 0.0 | 0.0 | 0.00 | 0.04 | 0.01 | 70 | 1029.2 |
| 20260510073849 | 61 | 202 | 0.0 | 0.0 | 0.00 | 0.04 | 0.01 | 70 | 1029.2 |
| 20260510073332 | 62 | 233 | 0.0 | 0.0 | 0.00 | 0.04 | 0.01 | 70 | 1029.1 |
| 20260510072814 | 63 | 233 | 0.0 | 0.0 | 0.00 | 0.04 | 0.01 | 67 | 1029.1 |
| 20260510072312 | 63 | 233 | 0.0 | 2.0 | 0.00 | 0.04 | 0.01 | 67 | 1029.1 |
| 20260510071816 | 64 | 233 | 0.0 | 2.0 | 0.00 | 0.04 | 0.01 | 67 | 1029.1 |
| 20260510071318 | 64 | 163 | 0.0 | 0.0 | 0.00 | 0.04 | 0.01 | 66 | 1029.1 |
| 20260510070819 | 65 | 163 | 0.0 | 0.0 | 0.00 | 0.04 | 0.01 | 65 | 1029.0 |
| 20260510070323 | 65 | 163 | 0.0 | 0.0 | 0.00 | 0.04 | 0.01 | 65 | 1029.0 |
| 20260510065827 | 66 | 163 | 0.0 | 0.0 | 0.00 | 0.04 | 0.01 | 65 | 1028.9 |
| 20260510065331 | 67 | 163 | 0.0 | 0.0 | 0.00 | 0.04 | 0.01 | 64 | 1028.7 |
| 20260510064850 | 67 | 163 | 0.0 | 2.0 | 0.00 | 0.04 | 0.01 | 64 | 1028.7 |
| 20260510064359 | 67 | 163 | 0.0 | 3.0 | 0.00 | 0.04 | 0.01 | 62 | 1028.8 |
| 20260510063813 | 68 | 163 | 1.0 | 4.0 | 0.00 | 0.04 | 0.01 | 61 | 1028.7 |
| 20260510063318 | 68 | 163 | 2.0 | 4.0 | 0.00 | 0.04 | 0.01 | 60 | 1028.5 |
| 20260510062822 | 68 | 165 | 2.0 | 3.0 | 0.00 | 0.04 | 0.01 | 59 | 1028.6 |
| 20260510062327 | 69 | 174 | 2.0 | 4.0 | 0.00 | 0.04 | 0.01 | 60 | 1028.4 |
| 20260510061846 | 69 | 172 | 2.0 | 4.0 | 0.00 | 0.04 | 0.01 | 58 | 1028.5 |
| 20260510061328 | 69 | 169 | 2.0 | 4.0 | 0.00 | 0.04 | 0.01 | 58 | 1028.3 |
| 20260510060833 | 69 | 165 | 2.0 | 5.0 | 0.00 | 0.04 | 0.01 | 58 | 1028.3 |
| 20260510060317 | 69 | 158 | 2.0 | 5.0 | 0.00 | 0.04 | 0.01 | 57 | 1028.3 |
| 20260510055815 | 70 | 180 | 3.0 | 5.0 | 0.00 | 0.04 | 0.01 | 56 | 1028.3 |
| 20260510055310 | 70 | 165 | 3.0 | 6.0 | 0.00 | 0.04 | 0.01 | 56 | 1028.2 |
| 20260510054815 | 70 | 165 | 4.0 | 6.0 | 0.00 | 0.04 | 0.01 | 57 | 1028.3 |
| 20260510054319 | 70 | 150 | 3.0 | 5.0 | 0.00 | 0.04 | 0.01 | 57 | 1028.2 |
| 20260510053824 | 70 | 167 | 3.0 | 6.0 | 0.00 | 0.04 | 0.01 | 57 | 1028.2 |
| 20260510053349 | 70 | 180 | 5.0 | 6.0 | 0.00 | 0.04 | 0.01 | 56 | 1028.2 |
| 20260510052829 | 70 | 185 | 3.0 | 6.0 | 0.00 | 0.04 | 0.01 | 56 | 1028.2 |
| 20260510052355 | 70 | 196 | 3.0 | 8.0 | 0.00 | 0.04 | 0.01 | 56 | 1028.1 |
| 20260510051811 | 70 | 180 | 5.0 | 8.0 | 0.00 | 0.04 | 0.01 | 56 | 1028.1 |
| 20260510051314 | 70 | 157 | 2.0 | 8.0 | 0.00 | 0.04 | 0.01 | 56 | 1028.0 |
| 20260510050818 | 70 | 180 | 4.0 | 6.0 | 0.00 | 0.04 | 0.01 | 56 | 1028.1 |
| 20260510050321 | 70 | 139 | 3.0 | 8.0 | 0.00 | 0.04 | 0.01 | 54 | 1028.0 |
| 20260510045824 | 70 | 143 | 3.0 | 8.0 | 0.00 | 0.04 | 0.01 | 56 | 1028.0 |
| 20260510045327 | 70 | 173 | 4.0 | 8.0 | 0.00 | 0.04 | 0.01 | 55 | 1028.0 |
| 20260510044832 | 70 | 152 | 2.0 | 5.0 | 0.00 | 0.04 | 0.01 | 57 | 1028.0 |
| 20260510044332 | 69 | 180 | 1.0 | 6.0 | 0.00 | 0.04 | 0.01 | 57 | 1028.1 |
| 20260510043829 | 69 | 157 | 4.0 | 6.0 | 0.00 | 0.04 | 0.01 | 55 | 1028.1 |
| 20260510043314 | 70 | 180 | 4.0 | 6.0 | 0.00 | 0.04 | 0.01 | 55 | 1028.0 |
| 20260510042839 | 70 | 216 | 4.0 | 6.0 | 0.00 | 0.04 | 0.01 | 56 | 1028.1 |
| 20260510042322 | 70 | 204 | 3.0 | 5.0 | 0.00 | 0.04 | 0.01 | 56 | 1028.1 |
| 20260510041838 | 69 | 165 | 2.0 | 5.0 | 0.00 | 0.04 | 0.01 | 57 | 1028.0 |
| 20260510041324 | 69 | 152 | 0.0 | 4.0 | 0.00 | 0.04 | 0.01 | 58 | 1028.0 |
| 20260510040819 | 69 | 165 | 1.0 | 6.0 | 0.00 | 0.04 | 0.01 | 58 | 1028.1 |
| 20260510040321 | 69 | 148 | 2.0 | 8.0 | 0.00 | 0.04 | 0.01 | 58 | 1028.0 |
| 20260510035825 | 69 | 149 | 2.0 | 8.0 | 0.00 | 0.04 | 0.01 | 58 | 1028.1 |
| 20260510035328 | 68 | 194 | 2.0 | 10.0 | 0.00 | 0.04 | 0.01 | 58 | 1028.1 |
| 20260510034830 | 68 | 217 | 5.0 | 9.0 | 0.00 | 0.04 | 0.01 | 58 | 1028.1 |
| 20260510034333 | 68 | 211 | 2.0 | 6.0 | 0.00 | 0.04 | 0.01 | 59 | 1028.2 |
| 20260510033814 | 68 | 180 | 3.0 | 7.0 | 0.00 | 0.04 | 0.01 | 58 | 1028.3 |
| 20260510033311 | 68 | 217 | 3.0 | 8.0 | 0.00 | 0.04 | 0.01 | 59 | 1028.3 |
| 20260510032835 | 68 | 91 | 2.0 | 9.0 | 0.00 | 0.04 | 0.01 | 59 | 1028.4 |
| 20260510032337 | 68 | 190 | 5.0 | 9.0 | 0.00 | 0.04 | 0.01 | 62 | 1028.4 |
| 20260510031813 | 68 | 218 | 1.0 | 6.0 | 0.00 | 0.04 | 0.01 | 63 | 1028.5 |
| 20260510031316 | 68 | 217 | 1.0 | 6.0 | 0.00 | 0.04 | 0.01 | 62 | 1028.6 |
| 20260510030817 | 68 | 298 | 2.0 | 4.0 | 0.00 | 0.04 | 0.01 | 63 | 1028.7 |
| 20260510030320 | 68 | 135 | 3.0 | 6.0 | 0.00 | 0.04 | 0.01 | 63 | 1028.7 |
| 20260510025821 | 68 | 134 | 2.0 | 6.0 | 0.00 | 0.04 | 0.01 | 64 | 1028.8 |
| 20260510025318 | 68 | 289 | 2.0 | 5.0 | 0.00 | 0.04 | 0.01 | 63 | 1028.9 |
| 20260510024819 | 67 | 245 | 0.0 | 6.0 | 0.00 | 0.04 | 0.01 | 65 | 1028.9 |
| 20260510024320 | 67 | 230 | 0.0 | 6.0 | 0.00 | 0.04 | 0.01 | 65 | 1029.0 |
| 20260510023845 | 67 | 135 | 4.0 | 6.0 | 0.00 | 0.04 | 0.01 | 65 | 1028.9 |
| 20260510023324 | 67 | 173 | 2.0 | 5.0 | 0.00 | 0.04 | 0.01 | 66 | 1029.0 |
| 20260510022823 | 67 | 144 | 2.0 | 5.0 | 0.00 | 0.04 | 0.01 | 66 | 1029.0 |
| 20260510022321 | 66 | 144 | 1.0 | 4.0 | 0.00 | 0.04 | 0.01 | 66 | 1029.2 |
| 20260510021815 | 66 | 170 | 2.0 | 4.0 | 0.00 | 0.04 | 0.01 | 66 | 1029.2 |
| 20260510021322 | 66 | 156 | 2.0 | 6.0 | 0.00 | 0.04 | 0.01 | 65 | 1029.5 |
| 20260510020817 | 66 | 167 | 4.0 | 6.0 | 0.00 | 0.04 | 0.01 | 67 | 1029.5 |
| 20260510020320 | 66 | 162 | 1.0 | 6.0 | 0.00 | 0.04 | 0.01 | 65 | 1029.6 |
| 20260510015837 | 65 | 279 | 2.0 | 3.0 | 0.00 | 0.04 | 0.01 | 65 | 1029.6 |
| 20260510015317 | 65 | 211 | 2.0 | 4.0 | 0.00 | 0.04 | 0.01 | 66 | 1029.7 |
| 20260510014838 | 65 | 170 | 2.0 | 4.0 | 0.00 | 0.04 | 0.01 | 67 | 1029.7 |
| 20260510014319 | 65 | 173 | 3.0 | 4.0 | 0.00 | 0.04 | 0.01 | 68 | 1029.9 |
| 20260510013822 | 65 | 173 | 2.0 | 4.0 | 0.00 | 0.04 | 0.01 | 69 | 1030.0 |
| 20260510013322 | 64 | 211 | 0.0 | 5.0 | 0.00 | 0.04 | 0.01 | 69 | 1030.1 |
| 20260510012823 | 64 | 144 | 3.0 | 5.0 | 0.00 | 0.04 | 0.01 | 69 | 1030.1 |
| 20260510012316 | 64 | 163 | 1.0 | 4.0 | 0.00 | 0.04 | 0.01 | 69 | 1030.2 |
| 20260510011814 | 63 | 213 | 2.0 | 4.0 | 0.00 | 0.04 | 0.01 | 71 | 1030.2 |
| 20260510011313 | 63 | 170 | 0.0 | 3.0 | 0.00 | 0.04 | 0.01 | 70 | 1030.2 |
| 20260510010835 | 63 | 151 | 1.0 | 4.0 | 0.00 | 0.04 | 0.01 | 72 | 1030.2 |
| 20260510010336 | 62 | 137 | 1.0 | 5.0 | 0.00 | 0.04 | 0.01 | 72 | 1030.2 |
| 20260510005814 | 62 | 190 | 3.0 | 5.0 | 0.00 | 0.04 | 0.01 | 74 | 1030.2 |
| 20260510005315 | 61 | 117 | 0.0 | 3.0 | 0.00 | 0.04 | 0.01 | 75 | 1030.2 |
| 20260510004815 | 60 | 138 | 0.0 | 4.0 | 0.00 | 0.04 | 0.01 | 79 | 1030.3 |
| 20260510004314 | 59 | 223 | 0.0 | 4.0 | 0.00 | 0.04 | 0.01 | 80 | 1030.4 |
| 20260510003815 | 59 | 171 | 1.0 | 3.0 | 0.00 | 0.04 | 0.01 | 82 | 1030.3 |
| 20260510003337 | 58 | 164 | 1.0 | 4.0 | 0.00 | 0.04 | 0.01 | 83 | 1030.3 |
| 20260510002832 | 57 | 180 | 1.0 | 3.0 | 0.00 | 0.04 | 0.01 | 86 | 1030.3 |
| 20260510002334 | 57 | 190 | 2.0 | 3.0 | 0.00 | 0.04 | 0.01 | 86 | 1030.3 |
| 20260510001824 | 56 | 169 | 0.0 | 3.0 | 0.00 | 0.04 | 0.01 | 89 | 1030.3 |
| 20260510001322 | 56 | 165 | 0.0 | 3.0 | 0.00 | 0.04 | 0.01 | 92 | 1030.3 |
| 20260510000822 | 55 | 196 | 1.0 | 3.0 | 0.00 | 0.04 | 0.01 | 92 | 1030.2 |
| 20260510000326 | 55 | 198 | 2.0 | 3.0 | 0.00 | 0.04 | 0.01 | 93 | 1030.3 |
| 20260509235824 | 55 | 251 | 0.0 | 1.0 | 0.00 | 0.04 | 0.01 | 94 | 1030.3 |
| 20260509235324 | 55 | 234 | 0.0 | 1.0 | 0.00 | 0.04 | 0.01 | 94 | 1030.3 |
| 20260509234826 | 54 | 190 | 0.0 | 1.0 | 0.00 | 0.04 | 0.01 | 95 | 1030.4 |
| 20260509234326 | 54 | 180 | 0.0 | 1.0 | 0.00 | 0.04 | 0.01 | 95 | 1030.4 |
| 20260509233821 | 54 | 180 | 0.0 | 0.0 | 0.00 | 0.04 | 0.01 | 95 | 1030.3 |
| 20260509233323 | 54 | 180 | 0.0 | 0.0 | 0.00 | 0.04 | 0.01 | 96 | 1030.3 |
| 20260509232856 | 53 | 180 | 0.0 | 0.0 | 0.00 | 0.04 | 0.01 | 96 | 1030.2 |
| 20260509232347 | 53 | 180 | 0.0 | 0.0 | 0.00 | 0.04 | 0.01 | 96 | 1030.1 |
| 20260509231828 | 52 | 180 | 0.0 | 0.0 | 0.00 | 0.04 | 0.01 | 96 | 1030.1 |
| 20260509231324 | 51 | 180 | 0.0 | 2.0 | 0.00 | 0.04 | 0.01 | 95 | 1030.1 |
| 20260509230827 | 51 | 180 | 0.0 | 3.0 | 0.00 | 0.04 | 0.01 | 95 | 1030.1 |
| 20260509230350 | 51 | 173 | 0.0 | 3.0 | 0.00 | 0.04 | 0.01 | 95 | 1030.0 |
| 20260509225830 | 51 | 180 | 0.0 | 2.0 | 0.00 | 0.04 | 0.01 | 96 | 1030.0 |
| 20260509225334 | 52 | 202 | 0.0 | 2.0 | 0.00 | 0.04 | 0.01 | 97 | 1029.9 |
| 20260509224828 | 51 | 203 | 0.0 | 0.0 | 0.00 | 0.04 | 0.01 | 97 | 1029.8 |
| 20260509224358 | 50 | 203 | 0.0 | 0.0 | 0.00 | 0.04 | 0.01 | 97 | 1029.9 |
| 20260509223811 | 49 | 203 | 0.0 | 0.0 | 0.00 | 0.04 | 0.01 | 97 | 1029.9 |
| 20260509223312 | 48 | 203 | 0.0 | 1.0 | 0.00 | 0.04 | 0.01 | 96 | 1029.9 |
| 20260509222830 | 47 | 203 | 0.0 | 1.0 | 0.00 | 0.04 | 0.01 | 96 | 1029.9 |
| 20260509222310 | 46 | 203 | 0.0 | 1.0 | 0.00 | 0.04 | 0.01 | 96 | 1029.8 |
| 20260509221831 | 46 | 241 | 0.0 | 1.0 | 0.00 | 0.04 | 0.01 | 96 | 1029.7 |
| 20260509221311 | 45 | 290 | 0.0 | 1.0 | 0.00 | 0.04 | 0.01 | 96 | 1029.6 |
| 20260509220827 | 44 | 325 | 0.0 | 1.0 | 0.00 | 0.04 | 0.01 | 96 | 1029.6 |
| 20260509220319 | 43 | 326 | 0.0 | 1.0 | 0.00 | 0.04 | 0.01 | 96 | 1029.4 |
| 20260509215824 | 43 | 340 | 0.0 | 1.0 | 0.00 | 0.04 | 0.01 | 96 | 1029.4 |
| 20260509215338 | 41 | 340 | 0.0 | 1.0 | 0.00 | 0.04 | 0.01 | 96 | 1029.4 |
| 20260509214818 | 41 | 337 | 0.0 | 1.0 | 0.00 | 0.04 | 0.01 | 95 | 1029.3 |
| 20260509214339 | 40 | 335 | 0.0 | 1.0 | 0.00 | 0.04 | 0.01 | 95 | 1029.3 |
| 20260509213821 | 39 | 346 | 0.0 | 1.0 | 0.00 | 0.04 | 0.01 | 94 | 1029.2 |
| 20260509213346 | 39 | 8 | 0.0 | 1.0 | 0.00 | 0.04 | 0.01 | 94 | 1029.2 |
| 20260509212847 | 39 | 8 | 0.0 | 1.0 | 0.00 | 0.04 | 0.01 | 94 | 1029.1 |
| 20260509212330 | 39 | 8 | 0.0 | 1.0 | 0.00 | 0.04 | 0.01 | 94 | 1029.2 |
| 20260509211849 | 39 | 8 | 0.0 | 0.0 | 0.00 | 0.04 | 0.01 | 93 | 1029.1 |
| 20260509211312 | 39 | 8 | 0.0 | 0.0 | 0.00 | 0.04 | 0.01 | 95 | 1029.0 |
| 20260509210837 | 39 | 9 | 0.0 | 0.0 | 0.00 | 0.04 | 0.01 | 94 | 1029.0 |
| 20260509210322 | 38 | 9 | 0.0 | 0.0 | 0.00 | 0.04 | 0.01 | 94 | 1029.0 |
| 20260509205819 | 38 | 9 | 0.0 | 0.0 | 0.00 | 0.04 | 0.01 | 94 | 1028.9 |
| 20260509205335 | 38 | 13 | 0.0 | 1.0 | 0.00 | 0.04 | 0.01 | 93 | 1028.8 |
| 20260509204816 | 38 | 13 | 0.0 | 1.0 | 0.00 | 0.04 | 0.01 | 92 | 1028.6 |
| 20260509204320 | 39 | 13 | 0.0 | 1.0 | 0.00 | 0.04 | 0.01 | 94 | 1028.7 |
| 20260509203825 | 39 | 194 | 0.0 | 0.0 | 0.00 | 0.04 | 0.01 | 94 | 1028.6 |
| 20260509203333 | 39 | 194 | 0.0 | 0.0 | 0.00 | 0.04 | 0.01 | 94 | 1028.6 |
| 20260509202814 | 39 | 194 | 0.0 | 0.0 | 0.00 | 0.04 | 0.01 | 94 | 1028.6 |
| 20260509202318 | 39 | 194 | 0.0 | 0.0 | 0.00 | 0.04 | 0.01 | 94 | 1028.5 |
| 20260509201812 | 39 | 194 | 0.0 | 0.0 | 0.00 | 0.04 | 0.01 | 93 | 1028.4 |
| 20260509201315 | 39 | 194 | 0.0 | 0.0 | 0.00 | 0.04 | 0.01 | 93 | 1028.4 |
| 20260509200818 | 40 | 194 | 0.0 | 0.0 | 0.00 | 0.04 | 0.01 | 93 | 1028.5 |
| 20260509200322 | 40 | 194 | 0.0 | 0.0 | 0.00 | 0.04 | 0.01 | 93 | 1028.4 |
| 20260509195826 | 40 | 194 | 0.0 | 0.0 | 0.00 | 0.04 | 0.01 | 93 | 1028.3 |
| 20260509195330 | 40 | 194 | 0.0 | 0.0 | 0.00 | 0.04 | 0.01 | 93 | 1028.2 |
| 20260509194822 | 40 | 194 | 0.0 | 3.0 | 0.00 | 0.04 | 0.01 | 94 | 1028.3 |
| 20260509194333 | 40 | 194 | 0.0 | 4.0 | 0.00 | 0.04 | 0.01 | 94 | 1028.2 |
| 20260509193827 | 40 | 180 | 2.0 | 4.0 | 0.00 | 0.04 | 0.01 | 94 | 1028.1 |
| 20260509193328 | 40 | 190 | 0.0 | 1.0 | 0.00 | 0.04 | 0.01 | 95 | 1028.0 |
| 20260509192825 | 40 | 202 | 0.0 | 1.0 | 0.04 | 0.04 | 0.01 | 94 | 1028.0 |
| 20260509192330 | 40 | 296 | 0.0 | 0.0 | 0.04 | 0.04 | 0.01 | 94 | 1027.9 |
| 20260509191832 | 40 | 296 | 0.0 | 0.0 | 0.04 | 0.04 | 0.01 | 93 | 1027.9 |
| 20260509191315 | 40 | 296 | 0.0 | 0.0 | 0.04 | 0.04 | 0.01 | 93 | 1027.8 |
| 20260509190812 | 40 | 296 | 0.0 | 0.0 | 0.04 | 0.04 | 0.01 | 93 | 1027.8 |
| 20260509190312 | 40 | 296 | 0.0 | 0.0 | 0.04 | 0.04 | 0.01 | 93 | 1027.8 |
| 20260509185834 | 40 | 296 | 0.0 | 0.0 | 0.04 | 0.04 | 0.01 | 93 | 1027.6 |
| 20260509185317 | 40 | 296 | 0.0 | 0.0 | 0.04 | 0.04 | 0.01 | 93 | 1027.5 |
| 20260509184822 | 40 | 296 | 0.0 | 1.0 | 0.04 | 0.04 | 0.01 | 94 | 1027.6 |
| 20260509184327 | 40 | 296 | 0.0 | 1.0 | 0.04 | 0.04 | 0.01 | 94 | 1027.5 |
| 20260509183828 | 40 | 298 | 0.0 | 0.0 | 0.04 | 0.04 | 0.01 | 94 | 1027.5 |
| 20260509183325 | 40 | 298 | 0.0 | 0.0 | 0.04 | 0.04 | 0.01 | 94 | 1027.4 |
| 20260509182836 | 40 | 298 | 0.0 | 0.0 | 0.00 | 0.00 | 0.00 | 94 | 1027.3 |
| 20260509182334 | 39 | 298 | 0.0 | 0.0 | 0.00 | 0.00 | 0.00 | 94 | 1027.3 |
| 20260509181840 | 39 | 298 | 0.0 | 0.0 | 0.00 | 0.00 | 0.00 | 93 | 1027.4 |
| 20260509181324 | 39 | 298 | 0.0 | 0.0 | 0.00 | 0.00 | 0.00 | 93 | 1027.3 |
| 20260509180829 | 39 | 298 | 0.0 | 0.0 | 0.00 | 0.00 | 0.00 | 94 | 1027.3 |
| 20260509180326 | 39 | 298 | 0.0 | 0.0 | 0.00 | 0.00 | 0.00 | 94 | 1027.2 |
| 20260509175855 | 39 | 298 | 0.0 | 0.0 | 0.00 | 0.00 | 0.00 | 93 | 1027.2 |
| 20260509175329 | 39 | 298 | 0.0 | 0.0 | 0.00 | 0.00 | 0.00 | 93 | 1027.2 |
| 20260509174834 | 39 | 298 | 0.0 | 0.0 | 0.00 | 0.00 | 0.00 | 93 | 1027.2 |
| 20260509174317 | 39 | 298 | 0.0 | 0.0 | 0.00 | 0.00 | 0.00 | 93 | 1027.2 |
| 20260509173820 | 39 | 298 | 0.0 | 0.0 | 0.00 | 0.00 | 0.00 | 93 | 1027.3 |
| 20260509173317 | 39 | 298 | 0.0 | 0.0 | 0.00 | 0.00 | 0.00 | 93 | 1027.2 |
| 20260509172826 | 39 | 298 | 0.0 | 0.0 | 0.00 | 0.00 | 0.00 | 93 | 1027.2 |
| 20260509172319 | 39 | 298 | 0.0 | 0.0 | 0.00 | 0.00 | 0.00 | 93 | 1027.1 |
| 20260509171823 | 39 | 298 | 0.0 | 0.0 | 0.00 | 0.00 | 0.00 | 94 | 1027.2 |
| 20260509171327 | 39 | 298 | 0.0 | 0.0 | 0.00 | 0.00 | 0.00 | 93 | 1027.2 |
| 20260509170812 | 38 | 298 | 0.0 | 0.0 | 0.00 | 0.00 | 0.00 | 93 | 1027.2 |
| 20260509170355 | 38 | 298 | 0.0 | 0.0 | 0.00 | 0.00 | 0.00 | 93 | 1027.3 |
| 20260509165839 | 38 | 300 | 0.0 | 0.0 | 0.00 | 0.00 | 0.00 | 93 | 1027.3 |
| 20260509165315 | 38 | 300 | 0.0 | 0.0 | 0.00 | 0.00 | 0.00 | 93 | 1027.2 |
| 20260509164818 | 38 | 300 | 0.0 | 0.0 | 0.00 | 0.00 | 0.00 | 93 | 1027.3 |
| 20260509164321 | 38 | 300 | 0.0 | 0.0 | 0.00 | 0.00 | 0.00 | 93 | 1027.4 |
| 20260509163823 | 38 | 300 | 0.0 | 0.0 | 0.00 | 0.00 | 0.00 | 93 | 1027.4 |
| 20260509163348 | 38 | 300 | 0.0 | 0.0 | 0.00 | 0.00 | 0.00 | 92 | 1027.5 |
| 20260509162828 | 38 | 300 | 0.0 | 1.0 | 0.00 | 0.00 | 0.00 | 91 | 1027.5 |
| 20260509162351 | 39 | 300 | 0.0 | 1.0 | 0.00 | 0.00 | 0.00 | 91 | 1027.6 |
| 20260509161834 | 40 | 296 | 0.0 | 0.0 | 0.00 | 0.00 | 0.00 | 93 | 1027.6 |
| 20260509161331 | 39 | 296 | 0.0 | 0.0 | 0.00 | 0.00 | 0.00 | 93 | 1027.6 |
| 20260509160830 | 39 | 296 | 0.0 | 0.0 | 0.00 | 0.00 | 0.00 | 93 | 1027.5 |
| 20260509160315 | 39 | 298 | 0.0 | 0.0 | 0.00 | 0.00 | 0.00 | 93 | 1027.4 |
| 20260509155816 | 39 | 298 | 0.0 | 0.0 | 0.00 | 0.00 | 0.00 | 92 | 1027.5 |
| 20260509155321 | 39 | 298 | 0.0 | 0.0 | 0.00 | 0.00 | 0.00 | 92 | 1027.5 |
| 20260509154819 | 39 | 299 | 0.0 | 0.0 | 0.00 | 0.00 | 0.00 | 92 | 1027.4 |
| 20260509154331 | 40 | 299 | 0.0 | 0.0 | 0.00 | 0.00 | 0.00 | 93 | 1027.4 |
| 20260509153851 | 40 | 296 | 0.0 | 0.0 | 0.00 | 0.00 | 0.00 | 93 | 1027.5 |
| 20260509153314 | 39 | 296 | 0.0 | 0.0 | 0.00 | 0.00 | 0.00 | 93 | 1027.4 |
| 20260509152816 | 39 | 296 | 0.0 | 0.0 | 0.00 | 0.00 | 0.00 | 92 | 1027.4 |
| 20260509152321 | 39 | 296 | 0.0 | 0.0 | 0.00 | 0.00 | 0.00 | 91 | 1027.5 |
| 20260509151819 | 40 | 296 | 0.0 | 0.0 | 0.00 | 0.00 | 0.00 | 91 | 1027.4 |
| 20260509151329 | 40 | 296 | 0.0 | 0.0 | 0.00 | 0.00 | 0.00 | 94 | 1027.5 |
| 20260509150827 | 40 | 299 | 0.0 | 1.0 | 0.00 | 0.00 | 0.00 | 94 | 1027.5 |
| 20260509150331 | 39 | 305 | 0.0 | 1.0 | 0.00 | 0.00 | 0.00 | 93 | 1027.5 |
| 20260509145813 | 39 | 305 | 0.0 | 0.0 | 0.00 | 0.00 | 0.00 | 92 | 1027.5 |
| 20260509145311 | 39 | 306 | 0.0 | 0.0 | 0.00 | 0.00 | 0.00 | 91 | 1027.6 |
| 20260509144850 | 39 | 306 | 0.0 | 0.0 | 0.00 | 0.00 | 0.00 | 91 | 1027.6 |
| 20260509144328 | 40 | 306 | 0.0 | 0.0 | 0.00 | 0.00 | 0.00 | 91 | 1027.7 |
| 20260509143832 | 40 | 306 | 0.0 | 0.0 | 0.00 | 0.00 | 0.00 | 92 | 1027.6 |
| 20260509143334 | 40 | 305 | 0.0 | 0.0 | 0.00 | 0.00 | 0.00 | 93 | 1027.6 |
| 20260509142819 | 40 | 331 | 0.0 | 0.0 | 0.00 | 0.00 | 0.00 | 91 | 1027.6 |
| 20260509142334 | 40 | 331 | 0.0 | 0.0 | 0.00 | 0.00 | 0.00 | 92 | 1027.6 |
| 20260509141816 | 40 | 331 | 0.0 | 0.0 | 0.00 | 0.00 | 0.00 | 91 | 1027.6 |
| 20260509141316 | 40 | 331 | 0.0 | 0.0 | 0.00 | 0.00 | 0.00 | 91 | 1027.6 |
| 20260509140820 | 40 | 331 | 0.0 | 0.0 | 0.00 | 0.00 | 0.00 | 92 | 1027.6 |
| 20260509140344 | 40 | 331 | 0.0 | 0.0 | 0.00 | 0.00 | 0.00 | 92 | 1027.6 |
| 20260509135843 | 40 | 331 | 0.0 | 0.0 | 0.00 | 0.00 | 0.00 | 92 | 1027.7 |
| 20260509135319 | 40 | 331 | 0.0 | 0.0 | 0.00 | 0.00 | 0.00 | 92 | 1027.7 |
| 20260509134820 | 40 | 331 | 0.0 | 0.0 | 0.00 | 0.00 | 0.00 | 92 | 1027.6 |
| 20260509134323 | 40 | 331 | 0.0 | 0.0 | 0.00 | 0.00 | 0.00 | 92 | 1027.6 |
| 20260509133828 | 40 | 331 | 0.0 | 1.0 | 0.00 | 0.00 | 0.00 | 92 | 1027.8 |
| 20260509133332 | 40 | 331 | 0.0 | 1.0 | 0.00 | 0.00 | 0.00 | 91 | 1027.7 |
| 20260509132813 | 40 | 331 | 0.0 | 0.0 | 0.00 | 0.00 | 0.00 | 91 | 1027.6 |
| 20260509132312 | 41 | 331 | 0.0 | 0.0 | 0.00 | 0.00 | 0.00 | 91 | 1027.7 |
| 20260509131816 | 41 | 331 | 0.0 | 0.0 | 0.00 | 0.00 | 0.00 | 91 | 1027.7 |
| 20260509131340 | 41 | 331 | 0.0 | 0.0 | 0.00 | 0.00 | 0.00 | 91 | 1027.8 |
| 20260509130823 | 41 | 331 | 0.0 | 0.0 | 0.00 | 0.00 | 0.00 | 92 | 1027.8 |
| 20260509130328 | 41 | 331 | 0.0 | 0.0 | 0.00 | 0.00 | 0.00 | 91 | 1027.7 |
| 20260509125849 | 41 | 331 | 0.0 | 0.0 | 0.00 | 0.00 | 0.00 | 91 | 1027.7 |
| 20260509125332 | 41 | 331 | 0.0 | 0.0 | 0.00 | 0.00 | 0.00 | 90 | 1027.7 |
| 20260509124828 | 41 | 331 | 0.0 | 0.0 | 0.00 | 0.00 | 0.00 | 89 | 1027.8 |
| 20260509124312 | 42 | 331 | 0.0 | 1.0 | 0.00 | 0.00 | 0.00 | 89 | 1027.7 |
| 20260509123818 | 44 | 328 | 0.0 | 1.0 | 0.00 | 0.00 | 0.00 | 91 | 1027.7 |
| 20260509123319 | 44 | 289 | 0.0 | 0.0 | 0.00 | 0.00 | 0.00 | 92 | 1027.6 |
| 20260509122841 | 44 | 289 | 0.0 | 0.0 | 0.00 | 0.00 | 0.00 | 92 | 1027.6 |
| 20260509122325 | 44 | 289 | 0.0 | 0.0 | 0.00 | 0.00 | 0.00 | 92 | 1027.6 |
| 20260509121823 | 44 | 290 | 0.0 | 0.0 | 0.00 | 0.00 | 0.00 | 92 | 1027.8 |
| 20260509121334 | 43 | 290 | 0.0 | 0.0 | 0.00 | 0.00 | 0.00 | 92 | 1027.7 |
| 20260509120812 | 43 | 290 | 0.0 | 1.0 | 0.00 | 0.00 | 0.00 | 92 | 1027.8 |
| 20260509120318 | 42 | 290 | 0.0 | 1.0 | 0.00 | 0.00 | 0.00 | 91 | 1027.7 |